Flag for Libya Weather past 2 weeks in Tripoli, Libya

Now
91 °F

Passing clouds.


Feels Like: 94 °F
Forecast: 76 / 90 °F
Wind: 13 mph from East

Location: Djerba Mellita

Current Time: Aug 1, 2014 at 5:37:38 PM

Latest Report: Aug 1, 2014 at 5:00 PM


Visibility: N/A

Pressure: 29.83 "Hg

Humidity: 44%

Dew point: 66 °F

Location of TripoliLocation

Historic Weather in Tripoli — Graph

°F

Tripoli temperature yesterday

Maximum temperature yesterday: 86 °F (at 2:00 PM)
Minimum temperature yesterday: 77 °F (at 4:00 AM)
Average temperature yesterday: 81 °F

Past Weeks' High & Low Weather Summary

 TemperatureHumidityPressure
High104 °F (Jul 26, 4:00 PM)84% (Jul 27, 2:00 AM)30.07 "Hg (Jul 27, 2:00 AM)
Low70 °F (Jul 19, 6:30 AM)17% (Jul 20, 2:00 PM)29.65 "Hg (Jul 29, 6:00 PM)
Average84 °F58%29.90 "Hg
* Reported Jul 17 4:00 PM — Aug 1 4:30 PM, Tripoli, Weather by CustomWeather, © 2014

Note: Actual official high and low records may vary slightly from our data, if they occured in-between our weather recording intervals... More about our weather records

Advertising

Tripoli weather history for previous 24 hours

 ConditionsComfort  
Time TempWeatherWind HumidityBarometerVisibility
4:30 PM
Aug 1
90 °FSunny.13 mph43%29.83 "Hg10 mi
4:00 PM90 °FPassing clouds.13 mph43%29.86 "HgN/A
3:30 PM88 °FSunny.13 mph43%29.86 "Hg10 mi
3:00 PM88 °FPassing clouds.13 mph43%29.86 "HgN/A
2:30 PM88 °FSunny.13 mph43%29.86 "Hg10 mi
2:00 PM88 °FSunny.12 mph46%29.86 "Hg10 mi
1:30 PM88 °FSunny.12 mph43%29.89 "Hg10 mi
1:00 PM88 °FSunny.12 mph43%29.89 "Hg10 mi
12:30 PM88 °FSunny.12 mph46%29.89 "Hg10 mi
12:00 PM88 °FSunny.12 mph43%29.89 "Hg10 mi
11:30 AM88 °FSunny.10 mph43%29.92 "Hg10 mi
11:00 AM88 °FPassing clouds.8 mph43%29.89 "HgN/A
10:30 AM88 °FPassing clouds.5 mph43%29.89 "HgN/A
10:00 AM86 °FPassing clouds.5 mph46%29.92 "HgN/A
9:30 AM84 °FPassing clouds.5 mph51%29.92 "HgN/A
9:00 AM82 °FPassing clouds.6 mph62%29.92 "HgN/A
8:30 AM81 °FPassing clouds.3 mph66%29.92 "HgN/A
8:00 AM81 °FSunny.6 mph66%29.89 "Hg10 mi
7:30 AM77 °FSunny.3 mph74%29.89 "Hg10 mi
7:00 AM73 °FSunny.5 mph78%29.89 "Hg10 mi
6:30 AM73 °FClear.5 mph78%29.89 "Hg5 mi
6:00 AM75 °FClear.3 mph74%29.89 "Hg5 mi
5:30 AM75 °FClear.No wind74%29.89 "Hg5 mi
4:30 AM73 °FMild.3 mph78%29.89 "HgN/A
4:00 AM75 °FClear.5 mph69%29.89 "Hg5 mi
3:30 AM75 °FClear.5 mph69%29.89 "Hg5 mi
3:00 AM77 °FClear.3 mph69%29.92 "Hg5 mi
2:30 AM77 °FClear.3 mph69%29.92 "Hg5 mi
2:00 AM77 °FClear.5 mph69%29.92 "Hg5 mi
1:00 AM79 °FClear.5 mph61%29.92 "Hg10 mi
12:30 AM79 °FClear.6 mph61%29.92 "Hg10 mi
11:30 PM
Jul 31
79 °FClear.6 mph65%29.92 "Hg10 mi
11:00 PM79 °FClear.7 mph65%29.92 "Hg10 mi
10:30 PM81 °FClear.8 mph62%29.92 "Hg10 mi
10:00 PM81 °FClear.9 mph62%29.89 "Hg10 mi
9:30 PM81 °FClear.12 mph58%29.89 "Hg10 mi
8:30 PM82 °FClear.13 mph51%29.86 "Hg10 mi
8:00 PM82 °FSunny.14 mph45%29.86 "Hg10 mi
7:30 PM84 °FSunny.15 mph45%29.86 "Hg10 mi
7:00 PM84 °FSunny.14 mph45%29.86 "Hg10 mi
6:30 PM84 °FPassing clouds.13 mph51%29.86 "HgN/A
6:00 PM84 °FSunny.13 mph55%29.86 "Hg10 mi
5:30 PM84 °FPassing clouds.14 mph55%29.89 "HgN/A
5:00 PM84 °FPassing clouds.13 mph55%29.89 "HgN/A
Weather by CustomWeather, © 2014

See weather overviewHow to use our weather pages